User: anonymous   Login
Location: Ostrava
(49.8330°N, 18.2830°E)
Time: 14:13:51
(UTC+01:00)
Language:

NOAA 19 - Orbit

View from above orbital plane
View from above orbital plane
View from above satellite
View from above satellite

Ground track
Ground track

The orbit data is extracted from the following two-line orbital elements,

1 33591U 09005A   15031.49355013  .00000343  00000-0  21225-3 0  5536
2 33591 098.9750 341.1701 0013913 191.5594 304.4619 14.11862557308209
Epoch (UTC): 31 January 2015 11:50:42
Eccentricity: 0.0013913
inclination: 98.9750°
perigee height: 843 km
apogee height: 863 km
right ascension of ascending node: 341.1701°
argument of perigee: 191.5594°
revolutions per day: 14.11862557
mean anomaly at epoch: 304.4619°
orbit number at epoch: 30820

The dashed part of the orbit path shows where the satellite is in the earth's shadow,  

DLR